Home   Weather   Lünen   Past weeks

Flag for Germany Past Weather in Lünen, North Rhine-Westphalia, Germany — Yesterday and Last 2 Weeks

39 °F


Feels Like: 36 °F
Forecast: 47 / 52 °F
Wind: 5 mph from Northeast

Location: Muenster / Osnabrueck

Current Time: Oct 24, 2016 at 3:46:07 AM

Latest Report: Oct 24, 2016 at 2:50 AM

Visibility: 2 mi

Pressure: 29.92 "Hg

Humidity: 100%

Dew Point: 39 °F

Location of LünenLocation

Past Weather in Lünen — Graph


Lünen Temperature Yesterday

Maximum temperature yesterday: 52 °F (at 4:50 PM)
Minimum temperature yesterday: 34 °F (at 1:20 AM)
Average temperature yesterday: 40 °F

High & Low Weather Summary for the Past Weeks

High64 °F (Oct 16, 2:50 PM)100% (Oct 9, 5:20 AM)30.30 "Hg (Oct 9, 5:20 AM)
Low32 °F (Oct 11, 2:50 AM)54% (Oct 10, 3:50 PM)29.68 "Hg (Oct 15, 1:20 AM)
Average47 °F88%30.03 "Hg
* Reported Oct 9 2:20 AM — Oct 24 2:20 AM, Lünen, Weather by CustomWeather, © 2016

Note: Actual official high and low records may vary slightly from our data, if they occured in-between our weather recording intervals... More about our weather records


Lünen Weather History for the Previous 24 Hours

Scroll right to see more
Time TempWeatherWind HumidityBarometerVisibility
2:20 AM
Mon, Oct 24
39 °FFog.3 mph93%29.92 "Hg3 mi
1:50 AM39 °FFog.3 mph93%29.92 "Hg3 mi
1:20 AM39 °FFog.5 mph93%29.92 "Hg5 mi
12:50 AM41 °FFog.3 mph93%29.92 "HgN/A
12:20 AM41 °FFog.2 mph93%29.92 "HgN/A
11:50 PM
Sun, Oct 23
41 °FFog.2 mph93%29.92 "Hg4 mi
11:20 PM41 °FFog.2 mph93%29.92 "Hg4 mi
10:50 PM39 °FFog.3 mph100%29.92 "Hg4 mi
10:20 PM39 °FFog.3 mph93%29.92 "Hg4 mi
9:50 PM41 °FFog.2 mph93%29.92 "Hg2 mi
9:20 PM41 °FFog.3 mph93%29.92 "Hg4 mi
8:50 PM41 °FFog.3 mph93%29.92 "Hg5 mi
8:20 PM43 °FFog.2 mph93%29.92 "Hg4 mi
7:50 PM41 °FFog.3 mph93%29.92 "Hg4 mi
7:20 PM41 °FFog.3 mph100%29.92 "Hg1 mi
6:50 PM43 °FFog.2 mph93%29.92 "Hg3 mi
6:20 PM45 °FFog.2 mph93%29.92 "HgN/A
5:50 PM48 °FPassing clouds.2 mph82%29.92 "HgN/A
5:20 PM48 °FPassing clouds.3 mph82%29.92 "HgN/A
4:50 PM52 °FPassing clouds.2 mph67%29.92 "HgN/A
4:20 PM50 °FPassing clouds.3 mph76%29.92 "HgN/A
3:50 PM50 °FPassing clouds.5 mph82%29.92 "HgN/A
3:20 PM50 °FPassing clouds.3 mph82%29.92 "HgN/A
2:50 PM48 °FPassing clouds.3 mph94%29.92 "HgN/A
2:20 PM46 °FPassing clouds.3 mph93%29.92 "HgN/A
1:50 PM45 °FPassing clouds.3 mph100%29.95 "HgN/A
1:20 PM45 °FScattered clouds.3 mph93%29.95 "Hg6 mi
12:50 PM43 °FPartly sunny.3 mph93%29.95 "Hg4 mi
12:20 PM41 °FFog.5 mph100%29.95 "Hg2 mi
11:50 AM39 °FFog.3 mph100%29.95 "Hg0 mi
11:20 AM39 °FFog.2 mph100%29.95 "Hg0 mi
10:50 AM37 °FFog.2 mph100%29.98 "Hg0 mi
10:20 AM37 °FFog.3 mph93%29.98 "Hg0 mi
9:50 AM36 °FFog.3 mph100%29.95 "Hg0 mi
9:20 AM36 °FFog.3 mph100%29.95 "Hg0 mi
8:50 AM36 °FFog.2 mph93%29.95 "Hg0 mi
8:20 AM34 °FFog.2 mph100%29.95 "Hg0 mi
7:50 AM34 °FFog.2 mph100%29.95 "Hg0 mi
7:20 AM34 °FFog.3 mph100%29.95 "Hg0 mi
6:50 AM34 °FFog.1 mph100%29.95 "Hg0 mi
6:20 AM34 °FFog.1 mph100%29.95 "Hg0 mi
5:50 AM34 °FFog.1 mph100%29.95 "Hg0 mi
5:20 AM34 °FFog.1 mph100%29.95 "Hg0 mi
4:50 AM34 °FFog.2 mph100%29.95 "Hg0 mi
4:20 AM34 °FFog.2 mph100%29.95 "Hg0 mi
3:50 AM34 °FFog.1 mph100%29.95 "Hg0 mi
3:20 AM34 °FFog.2 mph100%29.98 "Hg1 mi
Weather by CustomWeather, © 2016

See weather overviewHow to use our weather pages